sat.trackr.live / text

‹ back to catalog

ONEWEB-0423

NORAD 51627 · 2022-012F

PAYLOAD ACTIVE UNKNOWN

§ Identity

Operator
Country
UK
Launch date
2022-02-10
Launch site
FRGUI
Launch vehicle
Mass (kg)
RCS (m²)

Purposes: comms

External: N2YO · Heavens-Above · Gunter

§ Orbital elements

Epoch: 2026-09-19T00:02:37.739616Z

Period
109.29 min
Inclination
87.9199°
Eccentricity
0.0001953
Mean motion
13.17648508 rev/d
Perigee alt
1,192.2 km
Apogee alt
1,195.2 km
Semi-major
7,571.9 km
B*
-2.3698e-5
RAAN
347.2353°
Arg perigee
102.7041°
Mean anomaly
257.4309°
Rev number
22,605

§ Raw data

ONEWEB-04231 51627U 22012F   26262.00182569  .00000004  00000+0 -23698-4 0  99932 51627  87.9199 347.2353 0001953 102.7041 257.4309 13.17648508226054

JSON: /api/v1/satellites/51627 · /tle

For live sub-satellite position, see the globe view (requires WebGL).

§ Visibility from observer

Set your observer location to see the next 7 days of passes ≥ 10°. The values pass through the URL so the page stays shareable.

No JS? Fill the form by hand. The geolocation button needs JavaScript.